Marion, IN

1:03 PM EST on February 23, 2017 (GMT -0500)
Marion Municipal

Weather History for KMZZ - September, 2013

Change the Weather History Date:

Friday, September 13, 2013

  Actual Average (KMIE) Record (KMIE)
Temperature  
Mean Temperature 56 °F -  
Max Temperature 64 °F 78 °F 89 °F (1998)
Min Temperature 48 °F 57 °F 40 °F (1985)
Degree Days  
Heating Degree Days 9    
Growing Degree Days 6 (Base 50)    
Moisture  
Dew Point 44 °F    
Average Humidity 64    
Maximum Humidity 89    
Minimum Humidity 38    
Precipitation  
Precipitation 0.11 in - - ()
Sea Level Pressure  
Sea Level Pressure 30.09 in    
Wind  
Wind Speed 6 mph (NNE)    
Max Wind Speed 15 mph    
Max Gust Speed 20 mph    
Visibility 9 miles    
Events      
Averages and records for this station are not official NWS values.
T = Trace of Precipitation, MM = Missing Value Source: NWS Daily Summary

Daily Weather History Graph

Daily Weather History Graph

Search for Another Location

Airport or City:

Trip Planner

Search our weather history database for the weather conditions in past years. The results will help you decide how hot, cold, wet, or windy it might be!

Date:

Astronomy

Sep. 13, 2013 Rise Set
Actual Time 7:21 AM EDT 7:54 PM EDT
Civil Twilight 6:54 AM EDT 8:21 PM EDT
Nautical Twilight 6:21 AM EDT 8:54 PM EDT
Astronomical Twilight 5:48 AM EDT 9:27 PM EDT
Moon 3:44 PM EDT (9/13) 12:49 AM EDT (9/13)
Length of Visible Light 13h 27m
Length of Day
12h 32m
First Quarter, 61% of the Moon is Illuminated
Sep 13
First Quarter
Sep 19
Full
Sep 26
Last Quarter
Oct 4
New
Oct 11
First Quarter

Hourly Weather History & Observations

Time (EDT) Temp. Dew Point Humidity Pressure Visibility Wind Dir Wind Speed Gust Speed Precip Events Conditions
12:15 AM 60.1 °F 51.4 °F 73% 30.01 in 10.0 mi North 5.8 mph - N/A   Clear
12:35 AM 59.5 °F 51.6 °F 75% 30.01 in 10.0 mi North 4.6 mph - 0.01 in   Clear
12:55 AM 58.8 °F 51.4 °F 76% 30.02 in 10.0 mi North 4.6 mph - 0.01 in   Clear
1:15 AM 58.3 °F 51.3 °F 77% 30.02 in 7.0 mi North 5.8 mph - N/A   Clear
1:35 AM 58.1 °F 50.5 °F 76% 30.03 in 10.0 mi North 6.9 mph - N/A   Clear
1:55 AM 57.7 °F 50.2 °F 76% 30.03 in 10.0 mi North 5.8 mph - 0.01 in   Clear
2:15 AM 57.4 °F 50.2 °F 77% 30.03 in 10.0 mi North 4.6 mph - N/A   Clear
2:35 AM 56.8 °F 50.2 °F 78% 30.04 in 10.0 mi North 4.6 mph - N/A   Clear
2:55 AM 56.3 °F 50.0 °F 79% 30.05 in 10.0 mi North 4.6 mph - N/A   Clear
3:15 AM 55.8 °F 50.0 °F 81% 30.05 in 10.0 mi North 5.8 mph - N/A   Clear
3:35 AM 55.2 °F 49.6 °F 81% 30.05 in 10.0 mi North 4.6 mph - N/A   Clear
3:55 AM 54.7 °F 49.3 °F 82% 30.05 in 10.0 mi North 4.6 mph - 0.01 in   Clear
4:15 AM 54.0 °F 49.1 °F 84% 30.05 in 10.0 mi North 4.6 mph - N/A   Clear
4:35 AM 53.6 °F 48.4 °F 82% 30.05 in 10.0 mi NNW 3.5 mph - N/A   Clear
4:55 AM 52.9 °F 47.8 °F 83% 30.05 in 10.0 mi North 3.5 mph - N/A   Clear
5:15 AM 52.0 °F 48.0 °F 86% 30.05 in 10.0 mi NNE 4.6 mph - N/A   Clear
5:35 AM 51.1 °F 47.8 °F 89% 30.06 in 10.0 mi North 3.5 mph - 0.01 in   Clear
5:55 AM 51.4 °F 48.4 °F 89% 30.06 in 10.0 mi North 3.5 mph - 0.01 in   Clear
6:15 AM 51.3 °F 48.0 °F 89% 30.06 in 10.0 mi North 4.6 mph - N/A   Clear
6:35 AM 50.7 °F 47.5 °F 89% 30.06 in 10.0 mi NNW 4.6 mph - N/A   Clear
6:55 AM 50.2 °F 46.8 °F 88% 30.07 in 10.0 mi NNW 3.5 mph - N/A   Clear
7:15 AM 49.8 °F 46.4 °F 88% 30.08 in 10.0 mi North 3.5 mph - N/A   Clear
7:35 AM 49.5 °F 45.9 °F 87% 30.08 in 10.0 mi Calm Calm - 0.01 in   Clear
7:55 AM 49.3 °F 45.7 °F 87% 30.08 in 10.0 mi NNW 3.5 mph - 0.01 in   Clear
8:15 AM 50.0 °F 45.9 °F 86% 30.09 in 10.0 mi Calm Calm - N/A   Clear
8:35 AM 51.1 °F 45.7 °F 82% 30.09 in 10.0 mi Calm Calm - N/A   Clear
8:55 AM 52.3 °F 45.9 °F 79% 30.10 in 10.0 mi NNE 8.1 mph - N/A   Clear
9:15 AM 53.6 °F 44.4 °F 71% 30.09 in 10.0 mi North 8.1 mph 18.4 mph 0.01 in   Scattered Clouds
9:35 AM 54.7 °F 43.3 °F 66% 30.10 in 10.0 mi NNE 12.7 mph 19.6 mph 0.01 in   Mostly Cloudy
9:55 AM 56.1 °F 43.2 °F 62% 30.10 in 10.0 mi North 9.2 mph 17.3 mph 0.01 in   Overcast
10:15 AM 57.2 °F 42.8 °F 59% 30.11 in 10.0 mi North 11.5 mph 19.6 mph N/A   Scattered Clouds
10:35 AM 57.7 °F 41.9 °F 56% 30.11 in 10.0 mi North 10.4 mph 17.3 mph N/A   Clear
10:55 AM 58.6 °F 41.7 °F 53% 30.11 in 10.0 mi NNE 9.2 mph 16.1 mph 0.01 in   Clear
11:15 AM 59.4 °F 41.4 °F 51% 30.11 in 7.0 mi North 10.4 mph 19.6 mph N/A   Scattered Clouds
11:35 AM 60.3 °F 40.5 °F 48% 30.12 in 5.0 mi NE 15.0 mph - N/A   Haze
11:55 AM 61.5 °F 40.5 °F 46% 30.12 in 7.0 mi NNE 10.4 mph 17.3 mph N/A   Scattered Clouds
12:15 PM 61.3 °F 39.9 °F 45% 30.12 in 4.0 mi North 9.2 mph - N/A   Haze
12:35 PM 62.4 °F 40.3 °F 44% 30.12 in 5.0 mi North 10.4 mph 16.1 mph 0.01 in   Haze
12:55 PM 60.3 °F 40.5 °F 48% 30.12 in 7.0 mi North 12.7 mph 18.4 mph 0.01 in   Overcast
1:15 PM 60.1 °F 40.5 °F 48% 30.12 in 10.0 mi North 13.8 mph 19.6 mph N/A   Overcast
1:35 PM 60.8 °F 40.1 °F 46% 30.12 in 5.0 mi North 6.9 mph - N/A   Haze
1:55 PM 61.0 °F 40.5 °F 47% 30.11 in 7.0 mi NNE 10.4 mph - N/A   Overcast
2:15 PM 61.7 °F 40.8 °F 46% 30.11 in 10.0 mi NNE 10.4 mph - N/A   Overcast
2:35 PM 62.8 °F 40.8 °F 45% 30.11 in 10.0 mi North 9.2 mph - 0.01 in   Overcast
2:55 PM 62.2 °F 40.5 °F 45% 30.10 in 10.0 mi NNE 10.4 mph - 0.01 in   Mostly Cloudy
3:15 PM 62.6 °F 40.5 °F 44% 30.09 in 7.0 mi North 11.5 mph - N/A   Mostly Cloudy
3:35 PM 63.5 °F 40.3 °F 43% 30.09 in 10.0 mi NNE 9.2 mph - N/A   Mostly Cloudy
3:55 PM 63.0 °F 39.6 °F 42% 30.08 in 10.0 mi NNW 6.9 mph - N/A   Mostly Cloudy
4:15 PM 63.7 °F 39.6 °F 41% 30.08 in 10.0 mi North 10.4 mph 16.1 mph N/A   Mostly Cloudy
4:35 PM 64.0 °F 39.2 °F 40% 30.08 in 10.0 mi North 11.5 mph 18.4 mph N/A   Mostly Cloudy
4:55 PM 63.9 °F 39.4 °F 41% 30.08 in 10.0 mi North 8.1 mph - N/A   Scattered Clouds
5:15 PM 64.8 °F 38.7 °F 38% 30.08 in 7.0 mi NNE 8.1 mph 16.1 mph 0.01 in   Scattered Clouds
5:35 PM 64.8 °F 38.8 °F 38% 30.08 in 10.0 mi NNE 8.1 mph - 0.01 in   Scattered Clouds
5:55 PM 64.8 °F 39.2 °F 39% 30.08 in 10.0 mi North 6.9 mph - 0.01 in   Clear
6:15 PM 64.2 °F 38.8 °F 39% 30.08 in 10.0 mi North 9.2 mph - N/A   Clear
6:35 PM 63.9 °F 39.0 °F 40% 30.08 in 10.0 mi NNE 5.8 mph - N/A   Clear
6:55 PM 63.3 °F 38.8 °F 40% 30.08 in 10.0 mi North 6.9 mph - N/A   Clear
7:15 PM 62.2 °F 39.4 °F 43% 30.08 in 7.0 mi NE 8.1 mph - N/A   Clear
7:35 PM 60.6 °F 39.7 °F 46% 30.09 in 10.0 mi NE 4.6 mph - N/A   Clear
7:55 PM 58.5 °F 41.0 °F 52% 30.09 in 7.0 mi NE 5.8 mph - N/A   Clear
8:15 PM 56.1 °F 42.3 °F 60% 30.10 in 10.0 mi NE 4.6 mph - N/A   Clear
8:35 PM 54.1 °F 43.3 °F 67% 30.10 in 10.0 mi ENE 4.6 mph - 0.01 in   Clear
8:55 PM 53.4 °F 43.5 °F 69% 30.11 in 10.0 mi NE 4.6 mph - 0.01 in   Clear
9:15 PM 52.7 °F 43.2 °F 70% 30.12 in 10.0 mi NE 5.8 mph - N/A   Clear
9:35 PM 52.3 °F 43.0 °F 70% 30.12 in 10.0 mi NE 5.8 mph - N/A   Clear
9:55 PM 51.3 °F 43.3 °F 74% 30.13 in 10.0 mi NE 5.8 mph - N/A   Clear
10:15 PM 50.9 °F 43.0 °F 74% 30.13 in 10.0 mi ENE 5.8 mph - N/A   Clear
10:35 PM 50.4 °F 42.6 °F 75% 30.13 in 10.0 mi ENE 4.6 mph - N/A   Clear
10:55 PM 49.6 °F 42.6 °F 77% 30.14 in 10.0 mi East 4.6 mph - N/A   Clear
11:15 PM 49.5 °F 42.3 °F 76% 30.14 in 10.0 mi ENE 4.6 mph - N/A   Clear
11:35 PM 48.6 °F 42.1 °F 78% 30.14 in 10.0 mi ENE 3.5 mph - N/A   Clear
11:55 PM 48.0 °F 41.7 °F 79% 30.14 in 10.0 mi ENE 4.6 mph - N/A   Clear